San Diego Montgomery, CA

5:05 PM PDT on June 24, 2017 (GMT -0700)
Montgomery

Weather History for KMYF - January, 2014

Change the Weather History Date:

Tuesday, January 14, 2014

  Actual Average Record
Temperature  
Mean Temperature 66 °F 55 °F  
Max Temperature 84 °F 66 °F 85 °F (2014)
Min Temperature 48 °F 44 °F 30 °F (2007)
Degree Days  
Heating Degree Days 0 10  
Month to date heating degree days 140  
Since 1 July heating degree days 647  
Cooling Degree Days 1 0  
Month to date cooling degree days 0  
Year to date cooling degree days 0  
Growing Degree Days 16 (Base 50)    
Moisture  
Dew Point 15 °F    
Average Humidity 18    
Maximum Humidity 30    
Minimum Humidity 5    
Precipitation  
Precipitation 0.00 in 0.10 in 0.01 in (1999)
Month to date precipitation 1.48  
Year to date precipitation 1.48  
Sea Level Pressure  
Sea Level Pressure 30.22 in    
Wind  
Wind Speed 3 mph (NE)    
Max Wind Speed 17 mph    
Max Gust Speed 28 mph    
Visibility 10 miles    
Events      
T = Trace of Precipitation, MM = Missing Value Source: NWS Daily Summary

Daily Weather History Graph

Daily Weather History Graph

Search for Another Location

Airport or City:

Trip Planner

Search our weather history database for the weather conditions in past years. The results will help you decide how hot, cold, wet, or windy it might be!

Date:

Astronomy

Jan. 14, 2014 Rise Set
Actual Time 6:51 AM PST 5:04 PM PST
Civil Twilight 6:24 AM PST 5:31 PM PST
Nautical Twilight 5:54 AM PST 6:01 PM PST
Astronomical Twilight 5:24 AM PST 6:31 PM PST
Moon 4:11 PM PST (1/14) 5:30 AM PST (1/14)
Length of Visible Light 11h 06m
Length of Day
10h 13m
Waxing Gibbous, 98% of the Moon is Illuminated
Jan 14
Waxing Gibbous
Jan 15
Full
Jan 23
Last Quarter
Jan 30
New
Feb 6
First Quarter

Hourly Weather History & Observations

Time (PST) Temp. Dew Point Humidity Pressure Visibility Wind Dir Wind Speed Gust Speed Precip Events Conditions
12:53 AM 52.0 °F 18.0 °F 26% 30.24 in - Calm Calm - N/A   Clear
1:53 AM 52.0 °F 18.0 °F 26% 30.24 in - NNE 3.5 mph - N/A   Clear
2:53 AM 53.1 °F 16.0 °F 23% 30.24 in - Calm Calm - N/A   Clear
3:53 AM 52.0 °F 16.0 °F 24% 30.24 in - Calm Calm - N/A   Clear
4:53 AM 48.0 °F 18.0 °F 30% 30.25 in - East 3.5 mph - N/A   Clear
5:53 AM 48.0 °F 17.1 °F 29% 30.26 in 10.0 mi Calm Calm - N/A   Clear
6:53 AM 48.9 °F 18.0 °F 29% 30.27 in - Calm Calm - N/A   Clear
7:53 AM 55.9 °F 19.9 °F 25% 30.27 in 10.0 mi Calm Calm - N/A   Clear
8:53 AM 64.9 °F 18.0 °F 16% 30.28 in 10.0 mi Calm Calm - N/A   Clear
9:53 AM 71.1 °F 14.0 °F 11% 30.27 in - Calm Calm - N/A   Clear
10:53 AM 75.0 °F 17.1 °F 11% 30.26 in 10.0 mi South 3.5 mph - N/A   Clear
11:53 AM 84.0 °F 5.0 °F 5% 30.21 in 10.0 mi ENE 15.0 mph 27.6 mph N/A   Clear
12:53 PM 84.9 °F 3.9 °F 5% 30.18 in 10.0 mi ENE 17.3 mph 25.3 mph N/A   Clear
1:53 PM 84.9 °F 5.0 °F 5% 30.17 in 10.0 mi NE 16.1 mph 23.0 mph N/A   Clear
2:53 PM 84.0 °F 5.0 °F 5% 30.16 in 10.0 mi East 12.7 mph 19.6 mph N/A   Clear
3:53 PM 80.1 °F 17.1 °F 9% 30.17 in 10.0 mi Variable 4.6 mph - N/A   Clear
4:53 PM 73.9 °F 21.0 °F 14% 30.18 in 10.0 mi North 3.5 mph - N/A   Clear
5:53 PM 77.0 °F 7.0 °F 7% 30.18 in 10.0 mi NE 11.5 mph 19.6 mph N/A   Clear
6:53 PM 72.0 °F 8.1 °F 8% 30.19 in 10.0 mi NE 5.8 mph - N/A   Clear
7:53 PM 64.9 °F 10.9 °F 12% 30.20 in 10.0 mi Calm Calm - N/A   Clear
8:53 PM 61.0 °F 19.9 °F 21% 30.21 in 10.0 mi Calm Calm - N/A   Clear
9:53 PM 57.0 °F 21.9 °F 26% 30.20 in 10.0 mi ENE 3.5 mph - N/A   Clear
10:53 PM 57.0 °F 24.1 °F 28% 30.20 in 10.0 mi Calm Calm - N/A   Clear
11:53 PM 55.9 °F 25.0 °F 30% 30.19 in 10.0 mi North 3.5 mph - N/A   Clear